Theta_e
299 298 294 297 299 296 294 293 293 296 296 296 297 297 300 303 303 302 304 305 306 307 310 310 309 309 308 310 312 313 312 314 316 317 316 316 316 315 315 315 317 319 327 326
297 294 299 297 297 296 294 293 293 296 296 295 296 296 299 301 302 303 304 305 306 307 308 308 307 307 306 307 309 310 312 313 316 316 316 316 317 314 313 309 309 310 315 319
294 296 297 295 294 293 294 293 293 293 295 295 294 294 297 300 300 301 303 305 306 306 307 308 306 305 306 306 307 308 310 312 315 315 316 311 311 309 306 304 305 303 307 311
295 297 295 293 292 294 291 296 295 292 292 289 293 286 295 298 299 301 302 305 305 306 306 305 305 305 305 306 308 308 310 311 313 315 312 311 311 310 311 308 306 300 302 303
294 293 293 292 293 295 293 294 293 292 291 290 292 288 294 295 296 299 302 305 304 305 304 304 304 304 305 305 306 307 309 310 312 313 312 311 311 313 312 307 300 300 297 299
294 296 296 296 294 295 295 293 292 292 291 286 291 289 291 294 296 299 302 301 302 303 303 302 300 299 301 303 304 306 307 309 311 311 311 310 310 312 308 306 301 297 294 295
292 293 295 296 293 294 295 292 286 285 284 284 289 288 292 297 298 300 303 302 302 303 303 303 301 299 299 301 303 305 306 307 309 309 309 308 310 311 309 306 304 297 292 290
288 286 293 296 295 293 292 293 287 283 283 287 287 285 294 299 301 303 302 300 300 301 303 301 300 300 300 301 303 304 305 306 307 307 307 307 309 308 309 307 306 301 295 295
289 288 292 293 295 296 291 288 295 289 281 284 289 295 299 299 299 299 300 299 302 303 303 301 299 299 300 301 302 303 304 305 305 305 307 307 307 306 305 302 299 297 296 291
294 288 291 292 295 294 294 296 288 289 284 283 288 289 291 296 297 300 300 299 303 302 300 299 298 298 299 300 302 304 304 304 304 304 305 305 304 304 302 296 294 293 290 287
296 292 289 291 290 291 291 290 290 291 289 286 285 290 299 299 301 300 301 301 302 301 301 299 298 298 298 299 301 302 303 303 302 303 303 302 301 300 297 294 294 290 288 285
295 292 289 290 292 293 293 293 292 287 284 287 287 289 296 297 298 299 300 300 301 301 300 299 298 298 298 298 299 300 303 302 301 302 302 301 300 297 294 292 291 289 287 285
294 286 285 287 288 290 288 291 293 293 289 288 287 290 293 295 296 297 299 300 299 299 298 297 296 296 298 298 298 298 301 301 301 301 300 299 297 294 292 291 289 288 286 284
297 290 288 287 288 291 288 290 292 291 287 287 289 292 296 296 297 298 298 299 300 299 298 299 297 297 297 296 297 297 299 301 300 299 298 297 296 294 292 290 287 286 285 283
292 284 286 289 289 289 287 287 290 288 291 287 292 293 297 299 298 301 301 298 298 297 297 298 298 299 297 296 296 295 297 298 298 296 296 296 295 294 291 288 287 286 285 284
291 286 286 284 288 288 286 287 289 289 290 291 292 292 300 302 302 300 300 300 298 298 299 300 299 297 295 295 295 295 295 295 295 295 295 295 294 291 289 287 286 285 284 283
289 286 285 282 288 288 283 287 289 290 292 291 288 294 299 298 298 299 300 301 300 302 301 301 299 299 298 297 295 294 294 294 292 293 293 292 290 288 288 286 285 285 284 282
287 286 285 283 285 278 289 295 295 293 294 296 295 297 299 300 300 301 302 301 300 299 300 300 300 300 299 297 296 295 293 292 290 290 289 289 288 287 286 284 283 283 282 282
291 288 283 281 281 286 288 290 291 290 291 297 296 298 299 300 297 298 301 300 301 302 300 299 298 296 295 294 294 290 288 289 288 288 288 287 287 286 285 284 283 283 282 282
288 290 285 283 278 276 287 290 292 294 286 291 295 296 297 296 290 297 299 297 297 295 294 293 293 291 291 291 288 287 286 286 286 287 287 287 286 285 284 284 284 284 282 281
283 284 281 282 280 284 292 288 292 283 287 287 287 290 293 294 298 300 293 293 293 293 292 291 289 288 287 286 286 285 285 285 286 286 285 285 285 284 284 284 284 282 281 280
279 279 280 282 279 276 288 288 287 287 290 289 289 289 287 289 292 294 293 292 291 291 290 287 286 284 283 284 285 284 284 284 284 284 284 283 283 284 284 283 282 282 281 280
278 284 282 283 284 288 289 287 290 289 290 290 289 289 287 287 289 290 289 289 289 288 286 283 284 282 282 283 285 284 282 283 282 282 281 282 283 283 283 282 282 281 281 280
284 286 281 282 284 287 288 290 290 290 289 290 289 289 287 289 287 286 285 285 285 285 284 282 282 282 281 282 282 284 283 283 281 281 281 282 282 282 282 283 282 282 281 281
284 284 283 283 285 287 289 289 289 288 289 288 288 287 288 286 285 284 284 283 283 282 282 282 282 282 281 282 282 283 284 284 283 282 282 282 283 283 282 282 282 282 283 283
284 282 280 279 287 287 287 288 289 288 289 289 287 286 284 284 284 283 282 282 281 281 281 280 280 279 279 280 281 284 285 285 284 282 283 283 282 282 281 281 281 283 283 284
Wind_Speed
2 6 9 17 12 2 2 4 10 8 3 4 15 20 23 18 17 20 20 21 20 21 18 14 13 15 16 16 17 18 17 16 12 11 10 9 10 7 4 3 5 4 8 13
5 12 16 3 8 8 7 11 14 13 4 7 14 19 22 22 24 23 22 23 24 22 18 14 13 14 17 19 19 18 19 18 15 11 10 7 9 7 4 3 4 4 5 10
14 3 3 8 6 10 11 15 12 10 6 9 11 16 15 10 12 17 23 26 23 21 21 15 13 15 16 18 20 20 20 19 16 15 10 6 5 3 4 4 4 3 3 6
9 4 6 7 7 13 15 12 10 6 4 11 1 12 18 13 16 15 19 19 15 14 15 13 12 14 16 17 16 17 17 18 16 17 14 16 11 9 7 7 5 4 4 4
6 10 11 11 8 12 3 4 6 2 5 7 10 10 5 2 9 20 18 11 4 8 8 7 8 9 9 10 13 14 16 17 17 16 15 12 13 9 7 6 7 7 4 3
1 1 5 5 3 4 10 6 4 2 2 12 12 12 9 5 11 9 11 1 2 3 2 1 1 0 3 5 9 12 16 17 17 16 17 16 15 12 9 9 7 6 4 5
5 9 3 3 7 3 6 8 4 5 5 11 4 10 13 15 13 13 11 3 2 1 6 6 2 1 3 6 9 10 13 14 15 14 15 15 15 14 14 11 9 9 6 4
13 11 15 12 17 10 14 11 8 7 6 11 4 11 7 13 15 19 10 8 7 11 5 4 3 4 6 7 9 11 13 14 14 16 16 14 15 10 10 11 9 9 8 7
8 9 1 2 4 12 8 12 9 6 2 6 11 20 10 10 15 11 13 7 9 8 5 4 4 5 6 8 9 11 12 13 14 15 13 14 13 13 10 11 8 6 7 6
4 9 2 3 3 2 10 10 6 7 6 10 13 11 13 6 14 15 14 11 9 5 5 5 5 5 5 6 8 10 12 13 14 14 14 12 14 13 11 9 10 10 7 9
7 7 3 4 11 15 8 11 5 3 6 6 13 14 3 9 8 8 6 8 8 8 6 5 5 5 5 6 8 10 12 13 14 14 14 13 12 12 10 9 10 10 10 10
3 3 12 13 3 2 7 14 18 9 7 7 6 22 5 3 6 5 7 7 6 5 5 4 4 5 6 7 8 10 12 13 14 14 15 14 12 12 11 9 10 10 10 9
8 5 2 3 1 1 8 11 17 18 3 15 7 23 3 1 2 3 6 7 7 6 6 5 5 7 10 9 9 10 13 14 14 15 14 14 14 14 12 11 11 10 10 10
1 5 8 9 4 1 8 14 18 20 12 19 21 27 9 4 6 6 7 6 9 10 9 8 9 11 9 9 10 11 13 13 13 14 15 14 13 14 11 10 10 11 11 12
2 3 2 7 7 3 3 5 12 20 26 14 28 22 25 16 10 11 5 6 9 12 12 13 13 10 9 10 11 11 12 12 13 14 14 14 12 13 11 10 10 10 11 10
7 3 2 13 15 14 11 13 15 13 22 25 29 31 20 18 15 14 13 14 14 16 15 14 10 8 10 11 12 10 12 12 12 14 13 11 10 10 10 10 11 11 11 10
7 5 3 16 6 8 9 24 19 18 19 18 23 33 19 23 15 18 18 16 15 15 11 10 10 11 9 9 9 12 11 9 12 12 10 10 10 10 10 9 10 11 13 11
6 5 4 10 6 11 14 7 20 22 22 23 23 32 27 19 11 15 19 14 13 15 13 10 7 8 6 6 7 8 6 9 10 11 10 10 10 10 10 9 10 9 9 12
17 11 9 10 13 15 20 6 7 11 21 23 24 26 27 23 4 21 16 14 18 12 6 6 5 5 6 7 6 5 7 8 9 10 10 10 11 10 11 12 11 9 8 8
8 16 12 13 14 16 17 4 3 4 12 7 8 19 22 5 7 17 3 6 8 4 3 4 5 6 6 4 4 6 7 9 10 10 10 10 10 11 11 10 9 8 8 8
1 4 15 17 16 11 5 3 3 4 3 2 6 12 16 15 10 9 3 3 2 2 3 3 3 4 4 2 2 3 4 7 6 7 8 9 10 10 11 11 9 11 9 9
7 4 5 5 7 13 7 0 6 3 12 9 8 6 8 12 12 9 5 6 5 6 4 2 3 2 1 1 4 5 5 4 6 6 6 6 7 7 8 11 10 11 11 11
9 10 8 9 4 5 8 7 13 5 11 15 8 6 2 11 9 11 7 5 5 4 3 1 3 2 1 1 3 5 4 6 7 8 7 6 6 6 8 10 11 10 10 9
6 4 5 6 10 12 11 5 7 6 10 9 8 9 6 5 7 6 6 5 4 4 4 2 4 4 3 2 2 5 7 7 8 9 8 8 8 8 8 6 7 7 9 8
6 1 6 10 14 8 11 8 6 10 7 7 6 7 10 5 6 4 4 4 3 3 4 4 4 4 4 4 6 5 7 8 8 8 7 7 7 7 8 6 7 7 7 9
12 17 14 15 13 9 8 15 10 9 9 4 3 5 6 7 7 4 4 1 1 4 4 4 2 4 4 5 5 5 5 6 8 9 7 7 7 6 6 6 5 5 7 11
Wind_Direction
65 210 212 231 222 241 117 250 272 259 198 240 252 263 273 277 267 267 264 263 257 252 248 236 223 214 209 207 206 204 198 199 193 196 195 205 205 208 206 209 186 196 188 177
170 229 226 93 181 202 231 258 264 280 251 224 274 263 272 267 258 260 265 263 258 260 252 239 221 211 208 207 206 203 204 197 198 198 197 207 195 205 194 176 197 173 178 174
220 183 149 190 186 197 225 235 250 264 318 227 288 271 242 266 265 257 255 256 263 263 265 253 223 217 212 211 205 204 203 199 198 197 187 168 154 157 170 196 205 183 175 180
241 178 165 178 214 208 248 218 237 256 292 284 311 287 282 269 264 259 261 255 259 266 261 258 240 228 213 215 211 209 202 199 198 193 189 199 200 195 198 192 184 174 175 175
199 180 194 206 204 185 259 123 185 169 238 313 225 265 231 147 267 263 264 274 276 279 271 273 251 246 232 213 207 205 201 201 197 194 203 199 210 210 188 175 159 182 148 166
286 16 191 202 100 174 138 95 78 105 218 258 240 221 275 210 231 265 265 153 130 67 22 346 25 64 193 195 205 205 204 203 200 200 204 204 204 206 191 181 183 180 166 187
171 214 176 181 124 93 187 163 235 237 201 258 93 218 266 279 239 240 264 190 237 275 303 303 306 128 166 188 196 202 206 208 206 203 207 205 214 204 207 187 191 183 172 187
207 229 181 181 217 189 193 206 209 241 242 282 124 238 253 234 258 251 259 259 260 262 246 256 235 194 188 187 193 195 201 205 199 205 203 203 211 206 210 196 193 196 189 184
189 242 157 219 182 182 166 211 249 276 103 280 252 267 250 225 253 257 247 238 238 229 225 222 201 203 190 188 198 201 203 210 200 209 205 202 202 206 202 194 183 181 179 156
210 266 150 126 167 246 221 142 163 214 232 242 252 260 251 227 238 243 230 225 233 230 185 183 177 190 195 196 200 205 206 207 204 208 207 203 199 201 195 168 177 176 163 155
219 228 124 147 208 182 173 210 219 252 230 254 277 263 208 235 254 244 227 204 181 172 176 170 185 195 201 199 200 208 208 206 202 207 208 206 200 196 184 180 182 178 170 160
188 5 248 225 132 301 258 227 204 213 203 242 269 267 138 287 300 222 180 173 161 176 170 173 212 218 207 208 208 215 215 206 203 206 204 203 196 188 184 185 179 173 173 168
153 192 203 226 343 249 221 209 221 227 47 233 216 256 59 52 272 201 186 197 195 193 191 196 216 232 231 214 212 218 221 216 206 202 205 205 198 189 187 185 175 172 166 168
233 203 210 247 39 31 212 219 214 211 213 240 236 263 245 208 255 232 224 226 213 210 220 223 227 227 226 225 222 223 225 219 208 204 204 205 200 196 191 180 174 172 171 169
59 236 242 281 317 40 340 327 264 227 234 228 251 252 254 257 254 265 264 232 240 237 234 239 243 232 233 235 228 227 231 216 209 211 209 210 196 193 181 174 174 174 177 178
167 233 269 280 272 262 251 231 238 257 269 250 259 259 259 271 275 256 255 239 234 245 240 243 245 244 237 229 228 223 227 217 206 212 214 206 197 186 182 173 172 172 175 172
182 189 185 264 260 221 244 233 231 233 222 236 254 259 272 264 244 248 246 246 251 261 250 249 233 237 240 236 226 225 224 209 202 210 206 196 181 181 183 173 171 177 180 174
242 223 218 263 170 221 247 232 219 220 229 224 239 256 264 268 264 249 248 252 251 246 253 253 256 265 252 254 243 243 196 190 191 202 195 180 172 175 172 172 180 177 178 178
219 223 248 259 255 288 297 211 183 194 242 231 237 253 262 268 268 266 250 239 253 266 266 272 276 273 271 263 254 196 180 180 184 193 193 184 171 173 170 172 180 172 168 173
233 224 221 234 242 256 267 313 39 113 255 336 223 250 265 267 237 264 162 199 235 227 226 257 274 275 275 274 195 175 178 182 191 183 184 171 164 168 169 165 168 161 160 156
179 215 223 234 239 247 290 28 285 211 302 31 337 324 320 290 268 290 125 243 220 234 294 299 292 290 311 330 154 185 185 209 180 155 158 157 163 164 157 150 152 148 145 137
242 248 244 240 256 263 13 241 223 16 328 305 299 295 317 314 307 300 282 270 253 243 226 263 252 228 322 171 163 169 181 150 142 137 134 144 146 144 147 145 144 148 146 150
240 227 252 225 263 224 247 220 274 244 272 293 279 269 289 317 323 316 314 295 281 282 289 273 223 160 75 144 174 152 125 129 111 106 103 117 122 138 147 149 150 154 164 165
228 195 249 285 263 256 251 220 228 226 256 265 245 256 224 232 264 286 297 304 307 305 268 212 181 183 166 144 121 124 130 124 121 120 130 135 136 145 149 154 157 159 170 169
259 9 243 268 273 284 254 200 243 277 265 269 258 263 272 264 273 243 289 309 300 286 293 254 197 173 145 128 117 121 128 136 125 118 134 140 142 160 158 154 167 172 178 179
233 244 244 251 274 246 267 287 290 271 261 251 261 279 250 245 257 221 237 263 327 312 294 235 215 150 157 121 103 115 131 140 140 138 150 150 148 153 145 143 138 162 178 185